#Datum;Uhrzeit;WR;Pac;DaySum;Status;WR;Pac;DaySum;Status;Pdc1;Udc;Temp;WR;Pac;DaySum;Status;Pdc1;Udc;Temp;WR;Pac;DaySum;Status;Pdc1;Udc;Temp;WR;Pac;DaySum;Status;Pdc1;Pdc2;Udc1;Udc2;Temp;WR;Pac;DaySum;Status;Pdc1;Pdc2;Udc1;Udc2;Temp;WR;Pac;DaySum;Status;Pdc1;Udc;Temp;WR;Pac;DaySum;Status;Pdc1;Udc;Temp;WR;Pac;DaySum;Status;Pdc1;Udc;Temp
18.12.20;23:55:00;1;747;14613;0;2;0;2499;0;0;0;0;3;0;1529;0;0;0;0;4;0;2105;0;0;0;0;5;0;0;0;0;0;0;0;0;6;0;4131;0;0;0;0;0;0;7;0;2530;0;0;0;0;8;0;2564;0;0;0;0;9;0;1341;0;0;0;0
18.12.20;23:50:00;1;764;14550;0;2;0;2499;0;0;0;0;3;0;1529;0;0;0;0;4;0;2105;0;0;0;0;5;0;0;0;0;0;0;0;0;6;0;4131;0;0;0;0;0;0;7;0;2530;0;0;0;0;8;0;2564;0;0;0;0;9;0;1341;0;0;0;0
18.12.20;23:45:00;1;773;14486;0;2;0;2499;0;0;0;0;3;0;1529;0;0;0;0;4;0;2105;0;0;0;0;5;0;0;0;0;0;0;0;0;6;0;4131;0;0;0;0;0;0;7;0;2530;0;0;0;0;8;0;2564;0;0;0;0;9;0;1341;0;0;0;0
18.12.20;23:40:00;1;768;14422;0;2;0;2499;0;0;0;0;3;0;1529;0;0;0;0;4;0;2105;0;0;0;0;5;0;0;0;0;0;0;0;0;6;0;4131;0;0;0;0;0;0;7;0;2530;0;0;0;0;8;0;2564;0;0;0;0;9;0;1341;0;0;0;0
18.12.20;23:35:00;1;774;14357;0;2;0;2499;0;0;0;0;3;0;1529;0;0;0;0;4;0;2105;0;0;0;0;5;0;0;0;0;0;0;0;0;6;0;4131;0;0;0;0;0;0;7;0;2530;0;0;0;0;8;0;2564;0;0;0;0;9;0;1341;0;0;0;0
18.12.20;23:30:00;1;809;14292;0;2;0;2499;0;0;0;0;3;0;1529;0;0;0;0;4;0;2105;0;0;0;0;5;0;0;0;0;0;0;0;0;6;0;4131;0;0;0;0;0;0;7;0;2530;0;0;0;0;8;0;2564;0;0;0;0;9;0;1341;0;0;0;0
18.12.20;23:25:00;1;815;14225;0;2;0;2499;0;0;0;0;3;0;1529;0;0;0;0;4;0;2105;0;0;0;0;5;0;0;0;0;0;0;0;0;6;0;4131;0;0;0;0;0;0;7;0;2530;0;0;0;0;8;0;2564;0;0;0;0;9;0;1341;0;0;0;0
18.12.20;23:20:00;1;1267;14156;0;2;0;2499;0;0;0;0;3;0;1529;0;0;0;0;4;0;2105;0;0;0;0;5;0;0;0;0;0;0;0;0;6;0;4131;0;0;0;0;0;0;7;0;2530;0;0;0;0;8;0;2564;0;0;0;0;9;0;1341;0;0;0;0
18.12.20;23:15:00;1;1054;14058;0;2;0;2499;0;0;0;0;3;0;1529;0;0;0;0;4;0;2105;0;0;0;0;5;0;0;0;0;0;0;0;0;6;0;4131;0;0;0;0;0;0;7;0;2530;0;0;0;0;8;0;2564;0;0;0;0;9;0;1341;0;0;0;0
18.12.20;23:10:00;1;856;13967;0;2;0;2499;0;0;0;0;3;0;1529;0;0;0;0;4;0;2105;0;0;0;0;5;0;0;0;0;0;0;0;0;6;0;4131;0;0;0;0;0;0;7;0;2530;0;0;0;0;8;0;2564;0;0;0;0;9;0;1341;0;0;0;0
18.12.20;23:05:00;1;828;13896;0;2;0;2499;0;0;0;0;3;0;1529;0;0;0;0;4;0;2105;0;0;0;0;5;0;0;0;0;0;0;0;0;6;0;4131;0;0;0;0;0;0;7;0;2530;0;0;0;0;8;0;2564;0;0;0;0;9;0;1341;0;0;0;0
18.12.20;23:00:00;1;811;13827;0;2;0;2499;0;0;0;0;3;0;1529;0;0;0;0;4;0;2105;0;0;0;0;5;0;0;0;0;0;0;0;0;6;0;4131;0;0;0;0;0;0;7;0;2530;0;0;0;0;8;0;2564;0;0;0;0;9;0;1341;0;0;0;0
18.12.20;22:55:00;1;805;13758;0;2;0;2499;0;0;0;0;3;0;1529;0;0;0;0;4;0;2105;0;0;0;0;5;0;0;0;0;0;0;0;0;6;0;4131;2;0;0;0;0;0;7;0;2530;0;0;0;0;8;0;2564;0;0;0;0;9;0;1341;0;0;0;0
18.12.20;22:50:00;1;759;13690;0;2;0;2499;0;0;0;0;3;0;1529;0;0;0;0;4;0;2105;0;0;0;0;5;0;0;0;0;0;0;0;0;6;0;4131;2;0;0;0;0;0;7;0;2530;0;0;0;0;8;0;2564;0;0;0;0;9;0;1341;0;0;0;0
18.12.20;22:45:00;1;794;13627;0;2;0;2499;0;0;0;0;3;0;1529;0;0;0;0;4;0;2105;0;0;0;0;5;0;0;0;0;0;0;0;0;6;0;4131;2;0;0;0;0;0;7;0;2530;0;0;0;0;8;0;2564;0;0;0;0;9;0;1341;0;0;0;0
18.12.20;22:40:00;1;829;13560;0;2;0;2499;0;0;0;0;3;0;1529;0;0;0;0;4;0;2105;0;0;0;0;5;0;0;0;0;0;0;0;0;6;0;4131;2;0;0;0;0;0;7;0;2530;0;0;0;0;8;0;2564;0;0;0;0;9;0;1341;0;0;0;0
18.12.20;22:35:00;1;830;13491;0;2;0;2499;0;0;0;0;3;0;1529;0;0;0;0;4;0;2105;0;0;0;0;5;0;0;0;0;0;0;0;0;6;0;4131;2;0;0;0;0;0;7;0;2530;0;0;0;0;8;0;2564;0;0;0;0;9;0;1341;0;0;0;0
18.12.20;22:30:00;1;826;13422;0;2;0;2499;0;0;0;0;3;0;1529;0;0;0;0;4;0;2105;0;0;0;0;5;0;0;0;0;0;0;0;0;6;0;4131;2;0;0;0;0;0;7;0;2530;0;0;0;0;8;0;2564;0;0;0;0;9;0;1341;0;0;0;0
18.12.20;22:25:00;1;815;13352;0;2;0;2499;0;0;0;0;3;0;1529;0;0;0;0;4;0;2105;0;0;0;0;5;0;0;0;0;0;0;0;0;6;0;4131;2;0;0;0;0;0;7;0;2530;0;0;0;0;8;0;2564;0;0;0;0;9;0;1341;0;0;0;0
18.12.20;22:20:00;1;866;13285;0;2;0;2499;0;0;0;0;3;0;1529;0;0;0;0;4;0;2105;0;0;0;0;5;0;0;0;0;0;0;0;0;6;0;4131;2;0;0;0;0;0;7;0;2530;0;0;0;0;8;0;2564;0;0;0;0;9;0;1341;0;0;0;0
18.12.20;22:15:00;1;896;13213;0;2;0;2499;0;0;0;0;3;0;1529;0;0;0;0;4;0;2105;0;0;0;0;5;0;0;0;0;0;0;0;0;6;0;4131;2;0;0;0;0;0;7;0;2530;0;0;0;0;8;0;2564;0;0;0;0;9;0;1341;0;0;0;0
18.12.20;22:10:00;1;863;13138;0;2;0;2499;0;0;0;0;3;0;1529;0;0;0;0;4;0;2105;0;0;0;0;5;0;0;0;0;0;0;0;0;6;0;4131;2;0;0;0;0;0;7;0;2530;0;0;0;0;8;0;2564;0;0;0;0;9;0;1341;0;0;0;0
18.12.20;22:05:00;1;758;13065;0;2;0;2499;0;0;0;0;3;0;1529;0;0;0;0;4;0;2105;0;0;0;0;5;0;0;0;0;0;0;0;0;6;0;4131;2;0;0;0;0;0;7;0;2530;0;0;0;0;8;0;2564;0;0;0;0;9;0;1341;0;0;0;0
18.12.20;22:00:00;1;816;13002;0;2;0;2499;0;0;0;0;3;0;1529;0;0;0;0;4;0;2105;0;0;0;0;5;0;0;0;0;0;0;0;0;6;0;4131;2;0;0;0;0;0;7;0;2530;0;0;0;0;8;0;2564;0;0;0;0;9;0;1341;0;0;0;0
18.12.20;21:55:00;1;862;12933;0;2;0;2499;0;0;0;0;3;0;1529;0;0;0;0;4;0;2105;0;0;0;0;5;0;0;0;0;0;0;0;0;6;0;4131;2;0;0;0;0;0;7;0;2530;0;0;0;0;8;0;2564;0;0;0;0;9;0;1341;0;0;0;0
18.12.20;21:50:00;1;893;12862;0;2;0;2499;0;0;0;0;3;0;1529;0;0;0;0;4;0;2105;0;0;0;0;5;0;0;0;0;0;0;0;0;6;0;4131;2;0;0;0;0;0;7;0;2530;0;0;0;0;8;0;2564;0;0;0;0;9;0;1341;0;0;0;0
18.12.20;21:45:00;1;971;12787;0;2;0;2499;0;0;0;0;3;0;1529;0;0;0;0;4;0;2105;0;0;0;0;5;0;0;0;0;0;0;0;0;6;0;4131;2;0;0;0;0;0;7;0;2530;0;0;0;0;8;0;2564;0;0;0;0;9;0;1341;0;0;0;0
18.12.20;21:40:00;1;956;12708;0;2;0;2499;0;0;0;0;3;0;1529;0;0;0;0;4;0;2105;0;0;0;0;5;0;0;0;0;0;0;0;0;6;0;4131;2;0;0;0;0;0;7;0;2530;0;0;0;0;8;0;2564;0;0;0;0;9;0;1341;0;0;0;0
18.12.20;21:35:00;1;895;12631;0;2;0;2499;0;0;0;0;3;0;1529;0;0;0;0;4;0;2105;0;0;0;0;5;0;0;0;0;0;0;0;0;6;0;4131;2;0;0;0;0;0;7;0;2530;0;0;0;0;8;0;2564;0;0;0;0;9;0;1341;0;0;0;0
18.12.20;21:30:00;1;868;12556;0;2;0;2499;0;0;0;0;3;0;1529;0;0;0;0;4;0;2105;0;0;0;0;5;0;0;0;0;0;0;0;0;6;0;4131;2;0;0;0;0;0;7;0;2530;0;0;0;0;8;0;2564;0;0;0;0;9;0;1341;0;0;0;0
18.12.20;21:25:00;1;831;12484;0;2;0;2499;0;0;0;0;3;0;1529;0;0;0;0;4;0;2105;0;0;0;0;5;0;0;0;0;0;0;0;0;6;0;4131;2;0;0;0;0;0;7;0;2530;0;0;0;0;8;0;2564;0;0;0;0;9;0;1341;0;0;0;0
18.12.20;21:20:00;1;829;12415;0;2;0;2499;0;0;0;0;3;0;1529;0;0;0;0;4;0;2105;0;0;0;0;5;0;0;0;0;0;0;0;0;6;0;4131;2;0;0;0;0;0;7;0;2530;0;0;0;0;8;0;2564;0;0;0;0;9;0;1341;0;0;0;0
18.12.20;21:15:00;1;866;12346;0;2;0;2499;0;0;0;0;3;0;1529;0;0;0;0;4;0;2105;0;0;0;0;5;0;0;0;0;0;0;0;0;6;0;4131;2;0;0;0;0;0;7;0;2530;0;0;0;0;8;0;2564;0;0;0;0;9;0;1341;0;0;0;0
18.12.20;21:10:00;1;885;12275;0;2;0;2499;0;0;0;0;3;0;1529;0;0;0;0;4;0;2105;0;0;0;0;5;0;0;0;0;0;0;0;0;6;0;4131;2;0;0;0;0;0;7;0;2530;0;0;0;0;8;0;2564;0;0;0;0;9;0;1341;0;0;0;0
18.12.20;21:05:00;1;987;12202;0;2;0;2499;0;0;0;0;3;0;1529;0;0;0;0;4;0;2105;0;0;0;0;5;0;0;0;0;0;0;0;0;6;0;4131;2;0;0;0;0;0;7;0;2530;0;0;0;0;8;0;2564;0;0;0;0;9;0;1341;0;0;0;0
18.12.20;21:00:00;1;907;12120;0;2;0;2499;0;0;0;0;3;0;1529;0;0;0;0;4;0;2105;0;0;0;0;5;0;0;0;0;0;0;0;0;6;0;4131;2;0;0;0;0;0;7;0;2530;0;0;0;0;8;0;2564;0;0;0;0;9;0;1341;0;0;0;0
18.12.20;20:55:00;1;816;12043;0;2;0;2499;0;0;0;0;3;0;1529;0;0;0;0;4;0;2105;0;0;0;0;5;0;0;0;0;0;0;0;0;6;0;4131;2;0;0;0;0;0;7;0;2530;0;0;0;0;8;0;2564;0;0;0;0;9;0;1341;0;0;0;0
18.12.20;20:50:00;1;750;11974;0;2;0;2499;0;0;0;0;3;0;1529;0;0;0;0;4;0;2105;0;0;0;0;5;0;0;0;0;0;0;0;0;6;0;4131;2;0;0;0;0;0;7;0;2530;0;0;0;0;8;0;2564;0;0;0;0;9;0;1341;0;0;0;0
18.12.20;20:45:00;1;704;11911;0;2;0;2499;0;0;0;0;3;0;1529;0;0;0;0;4;0;2105;0;0;0;0;5;0;0;0;0;0;0;0;0;6;0;4131;2;0;0;0;0;0;7;0;2530;0;0;0;0;8;0;2564;0;0;0;0;9;0;1341;0;0;0;0
18.12.20;20:40:00;1;567;11852;0;2;0;2499;0;0;0;0;3;0;1529;0;0;0;0;4;0;2105;0;0;0;0;5;0;0;0;0;0;0;0;0;6;0;4131;2;0;0;0;0;0;7;0;2530;0;0;0;0;8;0;2564;0;0;0;0;9;0;1341;0;0;0;0
18.12.20;20:35:00;1;618;11804;0;2;0;2499;0;0;0;0;3;0;1529;0;0;0;0;4;0;2105;0;0;0;0;5;0;0;0;0;0;0;0;0;6;0;4131;2;0;0;0;0;0;7;0;2530;0;0;0;0;8;0;2564;0;0;0;0;9;0;1341;0;0;0;0
18.12.20;20:30:00;1;458;11753;0;2;0;2499;0;0;0;0;3;0;1529;0;0;0;0;4;0;2105;0;0;0;0;5;0;0;0;0;0;0;0;0;6;0;4131;2;0;0;0;0;0;7;0;2530;0;0;0;0;8;0;2564;0;0;0;0;9;0;1341;0;0;0;0
18.12.20;20:25:00;1;440;11713;0;2;0;2499;0;0;0;0;3;0;1529;0;0;0;0;4;0;2105;0;0;0;0;5;0;0;0;0;0;0;0;0;6;0;4131;2;0;0;0;0;0;7;0;2530;0;0;0;0;8;0;2564;0;0;0;0;9;0;1341;0;0;0;0
18.12.20;20:20:00;1;533;11677;0;2;0;2499;0;0;0;0;3;0;1529;0;0;0;0;4;0;2105;0;0;0;0;5;0;0;0;0;0;0;0;0;6;0;4131;2;0;0;0;0;0;7;0;2530;0;0;0;0;8;0;2564;0;0;0;0;9;0;1341;0;0;0;0
18.12.20;20:15:00;1;595;11632;0;2;0;2499;0;0;0;0;3;0;1529;0;0;0;0;4;0;2105;0;0;0;0;5;0;0;0;0;0;0;0;0;6;0;4131;2;0;0;0;0;0;7;0;2530;0;0;0;0;8;0;2564;0;0;0;0;9;0;1341;0;0;0;0
18.12.20;20:10:00;1;1362;11583;0;2;0;2499;0;0;0;0;3;0;1529;0;0;0;0;4;0;2105;0;0;0;0;5;0;0;0;0;0;0;0;0;6;0;4131;2;0;0;0;0;0;7;0;2530;0;0;0;0;8;0;2564;0;0;0;0;9;0;1341;0;0;0;0
18.12.20;20:05:00;1;498;11465;0;2;0;2499;0;0;0;0;3;0;1529;0;0;0;0;4;0;2105;0;0;0;0;5;0;0;0;0;0;0;0;0;6;0;4131;2;0;0;0;0;0;7;0;2530;0;0;0;0;8;0;2564;0;0;0;0;9;0;1341;0;0;0;0
18.12.20;20:00:00;1;488;11423;0;2;0;2499;0;0;0;0;3;0;1529;0;0;0;0;4;0;2105;0;0;0;0;5;0;0;0;0;0;0;0;0;6;0;4131;2;0;0;0;0;0;7;0;2530;0;0;0;0;8;0;2564;0;0;0;0;9;0;1341;0;0;0;0
18.12.20;19:55:00;1;476;11383;0;2;0;2499;0;0;0;0;3;0;1529;0;0;0;0;4;0;2105;0;0;0;0;5;0;0;0;0;0;0;0;0;6;0;4131;2;0;0;0;0;0;7;0;2530;0;0;0;0;8;0;2564;0;0;0;0;9;0;1341;0;0;0;0
18.12.20;19:50:00;1;479;11343;0;2;0;2499;0;0;0;0;3;0;1529;0;0;0;0;4;0;2105;0;0;0;0;5;0;0;0;0;0;0;0;0;6;0;4131;2;0;0;0;0;0;7;0;2530;0;0;0;0;8;0;2564;0;0;0;0;9;0;1341;0;0;0;0
18.12.20;19:45:00;1;400;11303;0;2;0;2499;0;0;0;0;3;0;1529;0;0;0;0;4;0;2105;0;0;0;0;5;0;0;0;0;0;0;0;0;6;0;4131;2;0;0;0;0;0;7;0;2530;0;0;0;0;8;0;2564;0;0;0;0;9;0;1341;0;0;0;0
18.12.20;19:40:00;1;392;11268;0;2;0;2499;0;0;0;0;3;0;1529;0;0;0;0;4;0;2105;0;0;0;0;5;0;0;0;0;0;0;0;0;6;0;4131;2;0;0;0;0;0;7;0;2530;0;0;0;0;8;0;2564;0;0;0;0;9;0;1341;0;0;0;0
18.12.20;19:35:00;1;446;11235;0;2;0;2499;0;0;0;0;3;0;1529;0;0;0;0;4;0;2105;0;0;0;0;5;0;0;0;0;0;0;0;0;6;0;4131;2;0;0;0;0;0;7;0;2530;0;0;0;0;8;0;2564;0;0;0;0;9;0;1341;0;0;0;0
18.12.20;19:30:00;1;796;11198;0;2;0;2499;0;0;0;0;3;0;1529;0;0;0;0;4;0;2105;0;0;0;0;5;0;0;0;0;0;0;0;0;6;0;4131;2;0;0;0;0;0;7;0;2530;0;0;0;0;8;0;2564;0;0;0;0;9;0;1341;0;0;0;0
18.12.20;19:25:00;1;631;11138;0;2;0;2499;0;0;0;0;3;0;1529;0;0;0;0;4;0;2105;0;0;0;0;5;0;0;0;0;0;0;0;0;6;0;4131;2;0;0;0;0;0;7;0;2530;0;0;0;0;8;0;2564;0;0;0;0;9;0;1341;0;0;0;0
18.12.20;19:20:00;1;542;11079;0;2;0;2499;0;0;0;0;3;0;1529;0;0;0;0;4;0;2105;0;0;0;0;5;0;0;0;0;0;0;0;0;6;0;4131;2;0;0;0;0;0;7;0;2530;0;0;0;0;8;0;2564;0;0;0;0;9;0;1341;0;0;0;0
18.12.20;19:15:00;1;1030;11035;0;2;0;2499;0;0;0;0;3;0;1529;0;0;0;0;4;0;2105;0;0;0;0;5;0;0;0;0;0;0;0;0;6;0;4131;2;0;0;0;0;0;7;0;2530;0;0;0;0;8;0;2564;0;0;0;0;9;0;1341;0;0;0;0
18.12.20;19:10:00;1;812;10952;0;2;0;2499;0;0;0;0;3;0;1529;0;0;0;0;4;0;2105;0;0;0;0;5;0;0;0;0;0;0;0;0;6;0;4131;2;0;0;0;0;0;7;0;2530;0;0;0;0;8;0;2564;0;0;0;0;9;0;1341;0;0;0;0
18.12.20;19:05:00;1;539;10872;0;2;0;2499;0;0;0;0;3;0;1529;0;0;0;0;4;0;2105;0;0;0;0;5;0;0;0;0;0;0;0;0;6;0;4131;2;0;0;0;0;0;7;0;2530;0;0;0;0;8;0;2564;0;0;0;0;9;0;1341;0;0;0;0
18.12.20;19:00:00;1;602;10807;0;2;0;2499;0;0;0;0;3;0;1529;0;0;0;0;4;0;2105;0;0;0;0;5;0;0;0;0;0;0;0;0;6;0;4131;2;0;0;0;0;0;7;0;2530;0;0;0;0;8;0;2564;0;0;0;0;9;0;1341;0;0;0;0
18.12.20;18:55:00;1;664;10735;0;2;0;2499;0;0;0;0;3;0;1529;0;0;0;0;4;0;2105;0;0;0;0;5;0;0;0;0;0;0;0;0;6;0;4131;2;0;0;0;0;0;7;0;2530;0;0;0;0;8;0;2564;0;0;0;0;9;0;1341;0;0;0;0
18.12.20;18:50:00;1;392;10684;0;2;0;2499;0;0;0;0;3;0;1529;0;0;0;0;4;0;2105;0;0;0;0;5;0;0;0;0;0;0;0;0;6;0;4131;2;0;0;0;0;0;7;0;2530;0;0;0;0;8;0;2564;0;0;0;0;9;0;1341;0;0;0;0
18.12.20;18:45:00;1;332;10650;0;2;0;2499;0;0;0;0;3;0;1529;0;0;0;0;4;0;2105;0;0;0;0;5;0;0;0;0;0;0;0;0;6;0;4131;2;0;0;0;0;0;7;0;2530;0;0;0;0;8;0;2564;0;0;0;0;9;0;1341;0;0;0;0
18.12.20;18:40:00;1;288;10622;0;2;0;2499;0;0;0;0;3;0;1529;0;0;0;0;4;0;2105;0;0;0;0;5;0;0;0;0;0;0;0;0;6;0;4131;2;0;0;0;0;0;7;0;2530;0;0;0;0;8;0;2564;0;0;0;0;9;0;1341;0;0;0;0
18.12.20;18:35:00;1;277;10597;0;2;0;2499;0;0;0;0;3;0;1529;0;0;0;0;4;0;2105;0;0;0;0;5;0;0;0;0;0;0;0;0;6;0;4131;2;0;0;0;0;0;7;0;2530;0;0;0;0;8;0;2564;0;0;0;0;9;0;1341;0;0;0;0
18.12.20;18:30:00;1;276;10574;0;2;0;2499;0;0;0;0;3;0;1529;0;0;0;0;4;0;2105;0;0;0;0;5;0;0;0;0;0;0;0;0;6;0;4131;2;0;0;0;0;0;7;0;2530;0;0;0;0;8;0;2564;0;0;0;0;9;0;1341;0;0;0;0
18.12.20;18:25:00;1;335;10551;0;2;0;2499;0;0;0;0;3;0;1529;0;0;0;0;4;0;2105;0;0;0;0;5;0;0;0;0;0;0;0;0;6;0;4131;2;0;0;0;0;0;7;0;2530;0;0;0;0;8;0;2564;0;0;0;0;9;0;1341;0;0;0;0
18.12.20;18:20:00;1;276;10524;0;2;0;2499;0;0;0;0;3;0;1529;0;0;0;0;4;0;2105;0;0;0;0;5;0;0;0;0;0;0;0;0;6;0;4131;2;0;0;0;0;0;7;0;2530;0;0;0;0;8;0;2564;0;0;0;0;9;0;1341;0;0;0;0
18.12.20;18:15:00;1;276;10501;0;2;0;2499;0;0;0;0;3;0;1529;0;0;0;0;4;0;2105;0;0;0;0;5;0;0;0;0;0;0;0;0;6;0;4131;2;0;0;0;0;0;7;0;2530;0;0;0;0;8;0;2564;0;0;0;0;9;0;1341;0;0;0;0
18.12.20;18:10:00;1;281;10478;0;2;0;2499;0;0;0;0;3;0;1529;0;0;0;0;4;0;2105;0;0;0;0;5;0;0;0;0;0;0;0;0;6;0;4131;2;0;0;0;0;0;7;0;2530;0;0;0;0;8;0;2564;0;0;0;0;9;0;1341;0;0;0;0
18.12.20;18:05:00;1;370;10455;0;2;0;2499;0;0;0;0;3;0;1529;0;0;0;0;4;0;2105;0;0;0;0;5;0;0;0;0;0;0;0;0;6;0;4131;2;0;0;0;0;0;7;0;2530;0;0;0;0;8;0;2564;0;0;0;0;9;0;1341;0;0;0;0
18.12.20;18:00:00;1;372;10424;0;2;0;2499;0;0;0;0;3;0;1529;0;0;0;0;4;0;2105;0;0;0;0;5;0;0;0;0;0;0;0;0;6;0;4131;2;0;0;0;0;0;7;0;2530;0;0;0;0;8;0;2564;0;0;0;0;9;0;1341;0;0;0;0
18.12.20;17:55:00;1;369;10393;0;2;0;2499;0;0;0;0;3;0;1529;0;0;0;0;4;0;2105;0;0;0;0;5;0;0;0;0;0;0;0;0;6;0;4131;2;0;0;0;0;0;7;0;2530;0;0;0;0;8;0;2564;0;0;0;0;9;0;1341;0;0;0;0
18.12.20;17:50:00;1;346;10361;0;2;0;2499;0;0;0;0;3;0;1529;0;0;0;0;4;0;2105;0;0;0;0;5;0;0;0;0;0;0;0;0;6;0;4131;2;0;0;0;0;0;7;0;2530;0;0;0;0;8;0;2564;0;0;0;0;9;0;1341;0;0;0;0
18.12.20;17:45:00;1;349;10331;0;2;0;2499;0;0;0;0;3;0;1529;0;0;0;0;4;0;2105;0;0;0;0;5;0;0;0;0;0;0;0;0;6;0;4131;2;0;0;0;0;0;7;0;2530;0;0;0;0;8;0;2564;0;0;0;0;9;0;1341;0;0;0;0
18.12.20;17:40:00;1;379;10302;0;2;0;2499;0;0;0;0;3;0;1529;0;0;0;0;4;0;2105;0;0;0;0;5;0;0;0;0;0;0;0;0;6;0;4131;2;0;0;0;0;0;7;0;2530;0;0;0;0;8;0;2564;0;0;0;0;9;0;1341;0;0;0;0
18.12.20;17:35:00;1;360;10270;0;2;0;2499;0;0;0;0;3;0;1529;0;0;0;0;4;0;2105;0;0;0;0;5;0;0;0;0;0;0;0;0;6;0;4131;2;0;0;0;0;0;7;0;2530;0;0;0;0;8;0;2564;0;0;0;0;9;0;1341;0;0;0;0
18.12.20;17:30:00;1;364;10240;0;2;0;2499;0;0;0;0;3;0;1529;0;0;0;0;4;0;2105;0;0;0;0;5;0;0;0;0;0;0;0;0;6;0;4131;2;0;0;0;0;0;7;0;2530;0;0;0;0;8;0;2564;0;0;0;0;9;0;1341;0;0;0;0
18.12.20;17:25:00;1;384;10210;0;2;0;2499;0;0;0;0;3;0;1529;0;0;0;0;4;0;2105;0;0;0;0;5;0;0;0;0;0;0;0;0;6;0;4131;2;0;0;0;0;0;7;0;2530;0;0;0;0;8;0;2564;0;0;0;0;9;0;1341;0;0;0;0
18.12.20;17:20:00;1;344;10176;0;2;0;2499;0;0;0;0;3;0;1529;0;0;0;0;4;0;2105;0;0;0;0;5;0;0;0;0;0;0;0;0;6;0;4131;2;0;0;0;0;0;7;0;2530;0;0;0;0;8;0;2564;0;0;0;0;9;0;1341;0;0;0;0
18.12.20;17:15:00;1;373;10147;0;2;0;2499;0;0;0;0;3;0;1529;0;0;0;0;4;0;2105;0;0;0;0;5;0;0;0;0;0;0;0;0;6;0;4131;2;0;0;0;0;0;7;0;2530;0;0;0;0;8;0;2564;0;0;0;0;9;0;1341;0;0;0;0
18.12.20;17:10:00;1;797;10115;0;2;0;2499;0;0;0;0;3;0;1529;0;0;0;0;4;0;2105;0;0;0;0;5;0;0;0;0;0;0;0;0;6;0;4131;2;0;0;0;0;0;7;0;2530;0;0;0;0;8;0;2564;0;0;0;0;9;0;1341;0;0;0;0
18.12.20;17:05:00;1;502;10068;0;2;0;2499;0;0;0;0;3;0;1529;0;0;0;0;4;0;2105;0;0;0;0;5;0;0;0;0;0;0;0;0;6;0;4131;2;0;0;0;0;0;7;0;2530;0;0;0;0;8;0;2564;0;0;0;0;9;0;1341;0;0;0;0
18.12.20;17:00:00;1;356;10027;0;2;0;2499;0;0;0;0;3;0;1529;0;0;0;0;4;0;2105;0;0;0;0;5;0;0;0;0;0;0;0;0;6;0;4131;2;0;0;0;0;0;7;0;2530;0;0;0;0;8;0;2564;0;0;0;0;9;0;1341;0;0;0;0
18.12.20;16:55:00;1;435;9997;0;2;0;2499;0;0;0;0;3;0;1529;0;0;0;0;4;0;2105;0;0;0;0;5;0;0;0;0;0;0;0;0;6;0;4131;2;0;0;0;0;0;7;0;2530;0;0;0;0;8;0;2564;0;0;0;0;9;0;1341;0;0;0;0
18.12.20;16:50:00;1;391;9961;0;2;0;2499;0;0;0;0;3;0;1529;0;0;0;0;4;0;2105;0;0;0;0;5;0;0;0;0;0;0;0;0;6;0;4131;2;0;0;0;0;0;7;0;2530;0;0;0;0;8;0;2564;0;0;0;0;9;0;1341;0;0;0;0
18.12.20;16:45:00;1;391;9928;0;2;0;2499;0;0;0;0;3;0;1529;0;0;0;0;4;0;2105;0;0;0;0;5;0;0;0;0;0;0;0;0;6;0;4131;2;0;0;0;0;0;7;0;2530;0;0;0;0;8;0;2564;0;0;0;0;9;0;1341;0;0;0;0
18.12.20;16:40:00;1;337;9895;0;2;0;2499;0;0;0;0;3;0;1529;0;0;0;0;4;0;2105;0;0;0;0;5;0;0;0;0;0;0;0;0;6;0;4131;2;0;0;0;0;0;7;0;2530;0;0;0;0;8;0;2564;0;0;0;0;9;0;1341;0;0;0;0
18.12.20;16:35:00;1;330;9867;0;2;0;2499;0;0;0;0;3;0;1529;0;0;175;8;4;0;2105;0;0;0;0;5;0;0;0;0;0;0;0;0;6;0;4131;2;0;0;0;0;0;7;0;2530;0;0;0;0;8;0;2564;0;0;0;0;9;0;1341;0;0;0;0
18.12.20;16:30:00;1;378;9840;0;2;0;2499;6;0;281;9;3;0;1529;6;0;308;12;4;0;2105;0;0;53;6;5;0;0;0;0;0;0;0;0;6;0;4131;2;0;0;0;0;0;7;0;2530;0;0;0;0;8;0;2564;0;0;0;0;9;0;1341;0;0;0;0
18.12.20;16:25:00;1;395;9809;0;2;0;2499;6;0;308;9;3;0;1529;6;0;363;12;4;0;2105;1;0;93;8;5;0;0;0;0;0;0;0;0;6;0;4131;1;0;0;0;0;0;7;0;2530;0;0;0;0;8;0;2564;0;0;0;0;9;0;1341;0;0;0;0
18.12.20;16:20:00;1;349;9775;0;2;0;2499;6;0;335;9;3;0;1529;6;0;397;13;4;0;2105;1;0;118;8;5;0;0;0;0;0;0;0;0;6;0;4131;1;5;2;137;287;19;7;0;2530;0;0;72;3;8;0;2564;0;0;109;5;9;0;1341;0;0;229;7
18.12.20;16:15:00;1;351;9746;0;2;0;2499;6;0;351;9;3;0;1529;6;1;418;13;4;0;2105;1;0;137;8;5;0;0;0;0;0;0;0;0;6;0;4131;23;5;4;180;485;21;7;0;2530;6;0;277;13;8;0;2564;6;0;282;12;9;0;1341;6;0;300;9
18.12.20;16:10:00;1;326;9716;0;2;0;2499;6;0;368;9;3;0;1529;6;1;446;13;4;0;2105;1;0;162;9;5;0;0;0;0;0;0;0;0;6;0;4131;23;5;4;236;478;22;7;0;2530;6;0;323;13;8;0;2564;6;0;329;12;9;0;1341;6;0;343;9
18.12.20;16:05:00;1;311;9688;0;2;0;2499;6;0;384;9;3;0;1529;6;1;466;13;4;0;2105;1;0;188;9;5;0;0;0;0;0;0;0;0;6;0;4131;23;0;8;579;180;22;7;0;2530;6;0;371;13;8;0;2564;6;0;378;13;9;0;1341;6;0;391;9
18.12.20;16:00:00;1;341;9662;0;2;0;2499;6;0;393;10;3;0;1529;4;1;456;13;4;0;2105;1;0;206;9;5;0;0;0;0;0;0;0;0;6;0;4131;23;6;4;182;569;22;7;0;2530;6;0;404;13;8;0;2564;6;0;411;13;9;0;1341;6;0;423;9
18.12.20;15:55:00;1;365;9634;0;2;0;2499;6;0;400;10;3;3;1529;3;6;465;13;4;0;2105;1;0;219;9;5;0;0;0;0;0;0;0;0;6;0;4131;23;5;5;182;580;23;7;0;2530;6;0;402;13;8;0;2564;6;0;414;13;9;0;1341;6;0;437;9
18.12.20;15:50:00;1;323;9604;0;2;0;2499;6;0;411;10;3;2;1528;6;7;482;13;4;0;2105;3;0;213;10;5;0;0;0;0;0;0;0;0;6;27;4131;1;7;14;536;516;24;7;0;2530;6;0;436;13;8;0;2564;6;0;441;13;9;0;1341;6;0;477;9
18.12.20;15:45:00;1;301;9576;0;2;4;2499;6;11;397;10;3;0;1528;6;9;485;13;4;0;2105;3;0;227;10;5;0;0;0;0;0;0;0;0;6;59;4128;4;20;32;484;462;24;7;1;2530;3;1;445;14;8;0;2564;4;1;450;13;9;0;1341;6;0;489;9
18.12.20;15:40:00;1;323;9551;0;2;3;2499;6;7;410;10;3;1;1528;6;5;515;13;4;0;2105;3;0;230;10;5;0;0;0;0;0;0;0;0;6;67;4123;4;26;37;484;462;24;7;1;2530;6;3;463;14;8;1;2564;6;3;465;13;9;0;1341;6;0;534;9
18.12.20;15:35:00;1;1024;9524;0;2;5;2498;6;10;415;11;3;2;1528;6;6;521;14;4;3;2105;3;3;200;10;5;0;0;0;0;0;0;0;0;6;80;4118;4;31;44;484;462;24;7;4;2530;6;5;469;14;8;0;2564;6;5;471;14;9;2;1341;3;3;518;10
18.12.20;15:30:00;1;431;9467;0;2;44;2498;6;65;374;11;3;0;1528;6;0;559;14;4;6;2105;3;6;198;10;5;0;0;0;0;0;0;0;0;6;104;4111;4;33;48;484;462;24;7;3;2529;6;7;489;14;8;4;2564;6;7;488;14;9;2;1340;6;5;539;10
18.12.20;15:25:00;1;424;9432;0;2;58;2495;4;87;374;11;3;10;1528;3;20;513;14;4;27;2104;3;28;198;10;5;0;0;0;0;0;0;0;0;6;123;4102;4;55;72;484;462;24;7;5;2529;6;8;492;14;8;4;2564;6;8;493;14;9;2;1340;6;5;543;10
18.12.20;15:20:00;1;449;9397;0;2;74;2490;4;103;376;11;3;5;1527;6;9;549;14;4;37;2102;3;39;198;10;5;0;0;0;0;0;0;0;0;6;145;4091;4;76;92;484;462;24;7;43;2529;6;63;404;15;8;35;2564;6;64;410;14;9;2;1340;6;6;553;10
18.12.20;15:15:00;1;542;9360;0;2;97;2484;4;126;380;11;3;27;1526;6;46;520;14;4;60;2099;3;62;198;10;5;0;0;0;0;0;0;0;0;6;169;4079;4;89;105;484;462;24;7;51;2525;4;92;443;15;8;64;2561;4;93;409;14;9;5;1340;6;8;557;10
18.12.20;15:10:00;1;597;9313;0;2;114;2476;4;142;380;12;3;63;1524;4;98;485;14;4;67;2094;3;70;198;11;5;0;0;0;0;0;0;0;0;6;193;4065;4;93;105;484;462;24;7;67;2521;4;98;409;15;8;64;2555;4;101;413;14;9;4;1340;6;7;562;10
18.12.20;15:05:00;1;398;9263;0;2;111;2466;4;141;387;12;3;62;1519;4;98;472;14;4;68;2088;3;71;198;11;5;0;0;0;0;0;0;0;0;6;189;4049;4;93;105;484;462;24;7;69;2515;4;100;424;15;8;69;2550;4;98;394;14;9;6;1339;4;10;558;10
18.12.20;15:00:00;1;375;9232;0;2;132;2457;4;160;381;12;3;72;1513;4;109;506;14;4;84;2082;3;87;199;11;5;0;0;0;0;0;0;0;0;6;220;4033;4;128;148;484;462;24;7;95;2509;4;131;429;15;8;106;2544;4;134;416;14;9;9;1339;6;11;569;10
18.12.20;14:55:00;1;408;9202;0;2;145;2446;4;172;374;12;3;82;1507;4;119;487;15;4;95;2075;3;99;217;11;5;0;0;0;0;0;0;0;0;6;227;4015;4;105;120;484;462;24;7;115;2501;4;151;443;15;8;118;2535;4;153;445;14;9;23;1338;6;30;546;11
18.12.20;14:50:00;1;417;9170;0;2;157;2434;4;188;383;12;3;92;1501;4;129;484;15;4;108;2067;5;113;226;11;5;0;0;0;0;0;0;0;0;6;240;3995;4;117;132;484;462;24;7;124;2492;4;155;414;15;8;130;2525;4;159;438;14;9;23;1336;4;31;552;11
18.12.20;14:45:00;1;453;9135;0;2;166;2421;4;198;392;12;3;96;1493;4;136;485;15;4;116;2058;5;121;223;11;5;0;0;0;0;0;0;0;0;6;254;3975;4;127;140;484;462;24;7;138;2481;4;166;442;15;8;131;2514;4;165;414;14;9;74;1333;4;95;464;11
18.12.20;14:40:00;1;448;9097;0;2;165;2406;4;195;381;12;3;95;1485;4;132;499;15;4;122;2048;5;127;228;11;5;0;0;0;0;0;0;0;0;6;262;3953;4;127;138;484;462;24;7;151;2470;4;183;429;15;8;151;2503;4;186;445;14;9;79;1327;4;104;469;11
18.12.20;14:35:00;1;444;9059;0;2;189;2393;4;221;390;12;3;112;1477;4;149;496;15;4;143;2038;5;149;230;11;5;0;0;0;0;0;0;0;0;6;292;3932;4;135;158;484;512;24;7;168;2457;4;199;446;15;8;164;2491;4;200;453;15;9;88;1320;4;113;480;11
18.12.20;14:30:00;1;459;9022;0;2;208;2377;4;242;382;12;3;122;1467;4;162;519;15;4;160;2026;5;167;229;11;5;0;0;0;0;0;0;0;0;6;333;3906;4;164;203;484;556;24;7;209;2443;4;243;453;15;8;210;2477;4;241;467;15;9;109;1313;4;135;499;11
18.12.20;14:25:00;1;400;8983;0;2;218;2359;4;253;390;12;3;130;1457;4;166;522;15;4;180;2013;5;187;230;11;5;0;0;0;0;0;0;0;0;6;354;3879;4;162;204;485;569;24;7;221;2426;4;264;473;15;8;234;2459;4;270;466;15;9;124;1304;4;151;520;11
18.12.20;14:20:00;1;403;8949;0;2;229;2341;4;261;388;12;3;137;1446;4;175;515;15;4;179;1998;5;187;233;11;5;0;0;0;0;0;0;0;0;6;367;3849;4;158;182;550;560;24;7;238;2408;4;268;448;15;8;239;2440;4;274;457;15;9;124;1293;4;154;519;11
18.12.20;14:15:00;1;459;8915;0;2;257;2322;4;289;388;12;3;153;1435;4;193;523;15;4;199;1983;5;207;232;11;5;0;0;0;0;0;0;0;0;6;407;3818;4;211;229;581;564;24;7;257;2388;4;279;460;15;8;249;2420;4;283;453;15;9;131;1283;4;160;511;11
18.12.20;14:10:00;1;456;8877;0;2;273;2301;4;309;394;12;3;168;1422;4;208;512;15;4;221;1967;5;230;233;11;5;0;0;0;0;0;0;0;0;6;445;3784;4;225;242;584;565;24;7;242;2366;4;288;462;15;8;259;2399;4;293;459;15;9;136;1272;4;166;524;12
18.12.20;14:05:00;1;434;8838;0;2;344;2278;4;380;405;13;3;212;1408;4;252;510;15;4;285;1948;5;297;239;11;5;0;0;0;0;0;0;0;0;6;552;3747;4;285;303;592;574;24;7;278;2346;4;312;483;15;8;278;2378;4;317;464;15;9;146;1261;4;174;528;12
18.12.20;14:00:00;1;480;8802;0;2;484;2249;4;523;412;12;3;297;1390;4;340;502;15;4;428;1924;5;445;242;11;5;0;0;0;0;0;0;0;0;6;814;3698;4;404;414;603;587;24;7;314;2322;4;350;487;15;8;320;2354;4;356;477;15;9;172;1248;4;199;525;12
18.12.20;13:55:00;1;470;8762;0;2;319;2209;4;358;401;12;3;196;1366;4;236;521;15;4;274;1889;5;285;239;11;5;0;0;0;0;0;0;0;0;6;553;3631;4;280;293;587;572;24;7;277;2296;4;319;471;15;8;279;2327;4;320;474;15;9;142;1234;4;180;518;12
18.12.20;13:50:00;1;410;8723;0;2;277;2182;4;312;396;13;3;171;1349;4;210;506;15;4;232;1866;5;242;235;11;5;0;0;0;0;0;0;0;0;6;477;3585;4;216;237;582;568;24;7;272;2272;4;314;472;15;8;279;2304;4;314;477;15;9;147;1222;4;175;526;12
18.12.20;13:45:00;1;412;8688;0;2;306;2159;4;342;400;13;3;187;1335;4;226;522;15;4;257;1846;5;268;236;11;5;0;0;0;0;0;0;0;0;6;524;3546;4;255;281;575;568;24;7;346;2250;4;384;479;15;8;348;2281;4;388;477;15;9;207;1210;4;215;527;12
18.12.20;13:40:00;1;386;8654;0;2;365;2134;4;404;406;13;3;225;1320;4;268;515;15;4;314;1825;5;327;240;11;5;0;0;0;0;0;0;0;0;6;613;3501;4;306;320;593;572;24;7;479;2221;4;524;481;15;8;489;2251;4;530;472;15;9;260;1192;4;296;534;12
18.12.20;13:35:00;1;1144;8621;0;2;548;2103;4;591;409;13;3;338;1301;4;384;511;15;4;477;1799;5;497;241;11;5;0;0;0;0;0;0;0;0;6;891;3449;4;445;451;606;579;24;7;595;2181;4;630;484;15;8;583;2211;4;630;477;15;9;311;1171;4;350;540;12
18.12.20;13:30:00;1;1123;8509;0;2;550;2058;4;594;413;13;3;346;1273;4;395;525;15;4;488;1759;5;508;241;11;5;0;0;0;0;0;0;0;0;6;907;3374;4;459;461;603;584;24;7;642;2131;4;675;495;15;8;639;2162;4;686;492;14;9;340;1145;4;377;533;12
18.12.20;13:25:00;1;1738;8395;0;2;537;2012;4;581;414;13;3;336;1244;4;386;525;15;4;469;1719;5;489;245;11;5;0;0;0;0;0;0;0;0;6;865;3299;4;445;441;602;576;24;7;554;2078;4;602;493;15;8;566;2108;4;610;484;14;9;300;1116;4;337;533;12